Weather History for KELO - January, 2013

Change the Weather History Date:

Tuesday, January 15, 2013

  Actual Average Record
Temperature  
Mean Temperature 12 °F -  
Max Temperature 21 °F 14 °F 32 °F (2006)
Min Temperature 3 °F -1 °F -27 °F (2009)
Degree Days  
Heating Degree Days 53    
Moisture  
Dew Point 4 °F    
Average Humidity 70    
Maximum Humidity 92    
Minimum Humidity 46    
Precipitation  
Precipitation 0.00 in - - ()
Sea Level Pressure  
Sea Level Pressure 29.92 in    
Wind  
Wind Speed 7 mph (SSW)    
Max Wind Speed 15 mph    
Max Gust Speed 22 mph    
Visibility 10 miles    
Events Snow    
Averages and records for this station are not official NWS values.
T = Trace of Precipitation, MM = Missing Value Source: NWS Daily Summary

Daily Weather History Graph

Daily Weather History Graph

Search for Another Location

Airport or City:

Trip Planner

Search our weather history database for the weather conditions in past years. The results will help you decide how hot, cold, wet, or windy it might be!

Date:

Astronomy

Jan. 15, 2013 Rise Set
Actual Time 7:51 AM CST 4:42 PM CST
Civil Twilight 7:16 AM CST 5:17 PM CST
Nautical Twilight 6:38 AM CST 5:56 PM CST
Astronomical Twilight 6:01 AM CST 6:33 PM CST
Moon 9:34 AM CST (1/15) 9:58 PM CST (1/15)
Length of Visible Light 10h 01m
Length of Day
8h 51m
Waxing Crescent, 19% of the Moon is Illuminated
Jan 15
Waxing Crescent
Jan 18
First Quarter
Jan 26
Full
Feb 3
Last Quarter
Feb 10
New

Hourly Weather History & Observations

Time (CST) Temp. Windchill Dew Point Humidity Pressure Visibility Wind Dir Wind Speed Gust Speed Precip Events Conditions
12:13 AM 3.2 °F -7.8 °F -0.4 °F 85% 30.15 in 10.0 mi SSW 5.8 mph - N/A   Overcast
12:32 AM 3.2 °F -6.2 °F -0.4 °F 85% 30.14 in 10.0 mi SSW 4.6 mph - N/A   Overcast
12:53 AM 3.2 °F -4.2 °F -0.4 °F 85% 30.14 in 10.0 mi SSW 3.5 mph - N/A   Overcast
1:13 AM 3.2 °F -4.2 °F -0.4 °F 85% 30.14 in 10.0 mi South 3.5 mph - N/A   Overcast
1:32 AM 3.2 °F - -0.4 °F 85% 30.13 in 10.0 mi Calm Calm - N/A   Overcast
1:53 AM 3.2 °F - -0.4 °F 85% 30.13 in 10.0 mi Calm Calm - N/A   Overcast
2:13 AM 3.2 °F - -0.4 °F 85% 30.12 in 10.0 mi Calm Calm - N/A   Overcast
2:33 AM 3.2 °F - -0.4 °F 85% 30.11 in 10.0 mi Calm Calm - N/A   Overcast
2:52 AM 3.2 °F - 1.4 °F 92% 30.11 in 10.0 mi Calm Calm - N/A   Overcast
3:13 AM 5.0 °F - 1.4 °F 85% 30.10 in 10.0 mi Calm Calm - N/A   Overcast
3:33 AM 5.0 °F - 1.4 °F 85% 30.09 in 10.0 mi Calm Calm - N/A   Overcast
3:52 AM 5.0 °F - 1.4 °F 85% 30.09 in 10.0 mi Calm Calm - N/A Snow Light Snow
4:13 AM 6.8 °F -3.5 °F 1.4 °F 79% 30.08 in 10.0 mi SSW 5.8 mph - N/A Snow Light Snow
4:33 AM 6.8 °F -2.0 °F 1.4 °F 79% 30.07 in 10.0 mi SSW 4.6 mph - N/A Snow Light Snow
4:52 AM 5.0 °F -2.1 °F 1.4 °F 85% 30.07 in 10.0 mi SSW 3.5 mph - N/A   Mostly Cloudy
5:13 AM 5.0 °F -5.6 °F 1.4 °F 85% 30.07 in 10.0 mi SW 5.8 mph - N/A   Mostly Cloudy
5:33 AM 6.8 °F -0.1 °F 1.4 °F 79% 30.06 in 10.0 mi SW 3.5 mph - N/A Snow Light Snow
5:52 AM 6.8 °F -3.5 °F 1.4 °F 79% 30.06 in 10.0 mi SW 5.8 mph - N/A Snow Light Snow
6:13 AM 6.8 °F -0.1 °F 3.2 °F 85% 30.05 in 10.0 mi WSW 3.5 mph - N/A Snow Light Snow
6:33 AM 6.8 °F -2.0 °F 1.4 °F 79% 30.05 in 7.0 mi WSW 4.6 mph - N/A Snow Light Snow
6:52 AM 6.8 °F -7.8 °F 1.4 °F 79% 30.05 in 7.0 mi WSW 10.4 mph - N/A Snow Light Snow
7:13 AM 6.8 °F -9.3 °F 1.4 °F 79% 30.05 in 10.0 mi WSW 12.7 mph 16.1 mph N/A Snow Light Snow
7:33 AM 6.8 °F -8.6 °F 1.4 °F 79% 30.05 in 7.0 mi WSW 11.5 mph - N/A Snow Light Snow
7:52 AM 6.8 °F -3.5 °F 1.4 °F 79% 30.05 in 7.0 mi WSW 5.8 mph - N/A Snow Light Snow
8:13 AM 6.8 °F -3.5 °F 1.4 °F 79% 30.06 in 5.0 mi SW 5.8 mph - N/A Snow Light Snow
8:33 AM 6.8 °F -4.8 °F 1.4 °F 79% 30.06 in 4.0 mi SW 6.9 mph - N/A Snow Light Snow
8:52 AM 6.8 °F -6.9 °F 1.4 °F 79% 30.05 in 10.0 mi SW 9.2 mph - N/A Snow Light Snow
9:13 AM 6.8 °F -3.5 °F 1.4 °F 79% 30.05 in 10.0 mi SSW 5.8 mph - N/A Snow Light Snow
9:33 AM 6.8 °F -4.8 °F 3.2 °F 85% 30.04 in 10.0 mi SSW 6.9 mph - N/A Snow Light Snow
9:52 AM 8.6 °F -4.7 °F 3.2 °F 79% 30.04 in 10.0 mi SW 9.2 mph - N/A Snow Light Snow
10:13 AM 8.6 °F -4.7 °F 3.2 °F 79% 30.04 in 10.0 mi SSW 9.2 mph - N/A   Clear
10:33 AM 10.4 °F -4.1 °F 3.2 °F 73% 30.03 in 10.0 mi SSW 11.5 mph - N/A   Clear
10:52 AM 10.4 °F -0.4 °F 3.2 °F 73% 30.01 in 10.0 mi SSW 6.9 mph - N/A   Clear
11:13 AM 12.2 °F 0.7 °F 3.2 °F 67% 30.00 in 10.0 mi SSW 8.1 mph - N/A   Mostly Cloudy
11:33 AM 12.2 °F 0.7 °F 3.2 °F 67% 29.99 in 10.0 mi SSW 8.1 mph - N/A   Overcast
11:53 AM 12.2 °F -1.8 °F 3.2 °F 67% 29.98 in 10.0 mi SSW 11.5 mph - N/A   Overcast
12:13 PM 14.0 °F 2.9 °F 3.2 °F 62% 29.96 in 10.0 mi SSW 8.1 mph - N/A   Overcast
12:32 PM 15.8 °F 3.4 °F 3.2 °F 58% 29.95 in 10.0 mi South 10.4 mph - N/A   Mostly Cloudy
12:53 PM 15.8 °F 4.2 °F 3.2 °F 58% 29.93 in 10.0 mi SSW 9.2 mph - N/A   Overcast
1:13 PM 17.6 °F 4.3 °F 1.4 °F 49% 29.91 in 10.0 mi South 12.7 mph 17.3 mph N/A   Overcast
1:33 PM 17.6 °F 5.0 °F 1.4 °F 49% 29.90 in 10.0 mi SSW 11.5 mph 18.4 mph N/A   Mostly Cloudy
1:53 PM 19.4 °F 7.9 °F 1.4 °F 46% 29.89 in 10.0 mi SSW 10.4 mph 17.3 mph N/A   Clear
2:13 PM 19.4 °F 5.5 °F 3.2 °F 49% 29.88 in 10.0 mi SSW 15.0 mph 20.7 mph N/A   Clear
2:33 PM 19.4 °F 7.2 °F 3.2 °F 49% 29.87 in 10.0 mi SSW 11.5 mph 19.6 mph N/A   Clear
2:53 PM 19.4 °F 7.2 °F 3.2 °F 49% 29.86 in 10.0 mi SSW 11.5 mph - N/A   Clear
3:13 PM 19.4 °F 9.5 °F 5.0 °F 54% 29.85 in 10.0 mi SSW 8.1 mph 19.6 mph N/A   Clear
3:33 PM 19.4 °F 7.9 °F 5.0 °F 54% 29.84 in 10.0 mi SSW 10.4 mph 20.7 mph N/A   Clear
3:53 PM 21.2 °F 10.1 °F 6.8 °F 54% 29.84 in 10.0 mi SSW 10.4 mph 18.4 mph N/A   Clear
4:13 PM 21.2 °F 8.9 °F 6.8 °F 54% 29.83 in 10.0 mi SSW 12.7 mph 18.4 mph N/A   Clear
4:32 PM 19.4 °F 6.6 °F 6.8 °F 58% 29.82 in 10.0 mi SW 12.7 mph 21.9 mph N/A   Clear
4:53 PM 19.4 °F 7.2 °F 6.8 °F 58% 29.82 in 10.0 mi SSW 11.5 mph 20.7 mph N/A   Clear
5:12 PM 17.6 °F 5.7 °F 6.8 °F 63% 29.81 in 10.0 mi SSW 10.4 mph 19.6 mph N/A   Clear
5:33 PM 17.6 °F 6.4 °F 6.8 °F 63% 29.80 in 10.0 mi SSW 9.2 mph 16.1 mph N/A   Clear
5:53 PM 17.6 °F 5.0 °F 6.8 °F 63% 29.79 in 10.0 mi SSW 11.5 mph 17.3 mph N/A   Clear
6:12 PM 17.6 °F 6.4 °F 6.8 °F 63% 29.78 in 10.0 mi SSW 9.2 mph 17.3 mph N/A   Clear
6:33 PM 17.6 °F 5.0 °F 6.8 °F 63% 29.76 in 10.0 mi SSW 11.5 mph 16.1 mph N/A   Clear
6:53 PM 17.6 °F 5.0 °F 6.8 °F 63% 29.76 in 10.0 mi SSW 11.5 mph 17.3 mph N/A   Clear
7:12 PM 17.6 °F 5.0 °F 6.8 °F 63% 29.74 in 10.0 mi SSW 11.5 mph 16.1 mph N/A   Clear
7:33 PM 17.6 °F 3.7 °F 6.8 °F 63% 29.73 in 10.0 mi SSW 13.8 mph 18.4 mph N/A   Clear
7:53 PM 17.6 °F 3.2 °F 6.8 °F 63% 29.71 in 10.0 mi SSW 15.0 mph 20.7 mph N/A   Clear
8:12 PM 17.6 °F 5.7 °F 6.8 °F 63% 29.70 in 10.0 mi SSW 10.4 mph 19.6 mph N/A   Clear
8:33 PM 17.6 °F 3.7 °F 6.8 °F 63% 29.69 in 10.0 mi SSW 13.8 mph 20.7 mph N/A   Clear
8:53 PM 17.6 °F 3.7 °F 6.8 °F 63% 29.68 in 10.0 mi SSW 13.8 mph 19.6 mph N/A   Clear
9:12 PM 17.6 °F 8.2 °F 6.8 °F 63% 29.67 in 10.0 mi SSW 6.9 mph 20.7 mph N/A   Clear
9:33 PM 19.4 °F 10.4 °F 6.8 °F 58% 29.65 in 10.0 mi SSW 6.9 mph 19.6 mph N/A   Clear
9:53 PM 19.4 °F 6.0 °F 8.6 °F 63% 29.63 in 10.0 mi SW 13.8 mph 18.4 mph N/A   Clear
10:13 PM 19.4 °F 6.6 °F 8.6 °F 63% 29.62 in 10.0 mi SSW 12.7 mph 19.6 mph N/A   Scattered Clouds
10:33 PM 19.4 °F 6.0 °F 8.6 °F 63% 29.60 in 10.0 mi SW 13.8 mph 20.7 mph N/A   Clear
10:53 PM 19.4 °F 6.6 °F 8.6 °F 63% 29.59 in 10.0 mi SSW 12.7 mph 20.7 mph N/A   Clear
11:13 PM 19.4 °F 6.0 °F 8.6 °F 63% 29.57 in 10.0 mi SSW 13.8 mph 19.6 mph N/A   Scattered Clouds
11:33 PM 19.4 °F 7.9 °F 8.6 °F 63% 29.55 in 10.0 mi SSW 10.4 mph 16.1 mph N/A   Overcast